(248382) = 2005 SY6

Discovered at Kitt Peak on 2005-09-23 by Spacewatch.

Orbit

Orbit type: Main Belt

Note: WebGL enabled browser required.

epoch2023-09-13.0
epoch JD2460200.5
perihelion date2022-04-02.13929
perihelion JD2459671.63929
argument of perihelion (°)118.03650
ascending node (°)214.71205
inclination (°)6.81166
eccentricity0.1932589
perihelion distance (AU)2.5689501
Tisserand w.r.t. Jupiter3.2
ΔV w.r.t. Earth (km/sec)10.3
semimajor axis (AU)3.1843552
mean anomaly (°)91.73032
mean daily motion (°/day)0.17344890
aphelion distance (AU)3.800
period (years)5.68
P-vector [x]0.88545770
P-vector [y]-0.45705521
P-vector [z]-0.08405472
Q-vector [x]0.45978576
Q-vector [y]0.83532002
Q-vector [z]0.30139265
absolute magnitude16.31
phase slope0.15
uncertainty0
referenceMPEC 2024-A141
observations used285
oppositions16
arc length (days)8858
first opposition used1999
last opposition used2024
residual rms (arc-secs)0.74
perturbers coarse indicatorM-v
perturbers precise indicator003Ek
first observation date used1999-10-11.0
last observation date used2024-01-11.0
computer nameMPCLINUX
JD of orbit computation2456760.616929
perihelion JD uncertainty (days)1.9544E-04
argument of perihelion uncertainty (°)5.5095E-05
ascending node uncertainty (°)4.8876E-05
inclination uncertainty (°)8.1537E-06
eccentricity uncertainty 7.3149E-08
perihelion distance uncertainty (AU)2.4357E-07
Minimum Orbit Intersection Distances (in AU)
for orbit epoch: 2460200.5, reference: E2024-AE1
Mercury2.17665
Venus1.85435
Earth1.56737
Mars1.21398
Jupiter1.66666
Saturn5.48225
Uranus14.6854
Neptune26.6197

Observations

287 total observations over interval: 1999 10 11.15314 – 2024 01 11.288502
These data are available for download (format description).

Date (UT) J2000 RA J2000 Dec Magn Location Ref
1999 10 11.15314 23 27 36.59 +02 42 55.3 19.6   704 – Lincoln Laboratory ETS, New Mexico MPS 331920
1999 10 11.17164 23 27 36.12 +02 42 46.5 19.9   704 – Lincoln Laboratory ETS, New Mexico MPS 331920
1999 10 11.18089 23 27 35.83 +02 42 43.0 19.6   704 – Lincoln Laboratory ETS, New Mexico MPS 331920
2005 09 23.39542 02 11 12.35 +15 18 58.2 20.9 V 291 – LPL/Spacewatch II MPS 142753
2005 09 23.41414 02 11 11.88 +15 18 53.4 21.0 V 291 – LPL/Spacewatch II MPS 142753
2005 09 23.43195 02 11 11.41 +15 18 49.4 20.6 V 291 – LPL/Spacewatch II MPS 142753
2005 09 26.39744 02 09 53.57 +15 06 00.5 20.9 V 691 – Steward Observatory, Kitt Peak-Spacewatch MPS 142753
2005 09 26.41534 02 09 53.03 +15 05 55.5 20.4 V 691 – Steward Observatory, Kitt Peak-Spacewatch MPS 142753
2005 09 26.43269 02 09 52.52 +15 05 50.9 20.8 V 691 – Steward Observatory, Kitt Peak-Spacewatch MPS 142753
2005 10 02.48602 02 06 41.11 +14 35 58.6 20.3 V G96 – Mt. Lemmon Survey MPS 144117
2005 10 02.48997 02 06 40.96 +14 35 57.2 20.1 V G96 – Mt. Lemmon Survey MPS 144117
2005 10 02.49788 02 06 40.64 +14 35 55.0 20.2 V G96 – Mt. Lemmon Survey MPS 144117
2005 10 04.41398 02 05 32.24 +14 25 31.0 19.9 V G96 – Mt. Lemmon Survey MPS 144117
2005 10 04.41487 02 05 32.20 +14 25 30.7 19.4 V G96 – Mt. Lemmon Survey MPS 144117
2005 10 04.42003 02 05 31.99 +14 25 29.3 20.3 V G96 – Mt. Lemmon Survey MPS 144117
2005 10 04.42091 02 05 31.99 +14 25 28.6 20.0 V G96 – Mt. Lemmon Survey MPS 144117
2005 10 04.42606 02 05 31.77 +14 25 26.9 20.0 V G96 – Mt. Lemmon Survey MPS 144117
2005 10 04.42694 02 05 31.74 +14 25 26.8 20.0 V G96 – Mt. Lemmon Survey MPS 144117
2005 10 04.43206 02 05 31.56 +14 25 24.9 19.8 V G96 – Mt. Lemmon Survey MPS 144117
2005 10 04.43295 02 05 31.52 +14 25 24.7 19.9 V G96 – Mt. Lemmon Survey MPS 144117
2005 10 06.33837 02 04 20.13 +14 14 39.6 20.3 V G96 – Mt. Lemmon Survey MPS 144117
2005 10 06.34350 02 04 19.95 +14 14 38.1 19.7 V G96 – Mt. Lemmon Survey MPS 144117
2005 10 06.34865 02 04 19.70 +14 14 36.2 20.2 V G96 – Mt. Lemmon Survey MPS 144117
2005 10 06.35375 02 04 19.52 +14 14 34.5 19.7 V G96 – Mt. Lemmon Survey MPS 144117
2005 10 07.42693 02 03 37.76 +14 08 20.7 19.3 V G96 – Mt. Lemmon Survey MPS 144117
2005 10 07.43387 02 03 37.47 +14 08 18.4 20.1 V G96 – Mt. Lemmon Survey MPS 144117
2005 10 07.44073 02 03 37.22 +14 08 15.8 20.1 V G96 – Mt. Lemmon Survey MPS 144117
2005 10 07.44765 02 03 36.93 +14 08 13.4 19.9 V G96 – Mt. Lemmon Survey MPS 144117
2005 10 29.31735 01 47 51.54 +11 46 30.9 20.4 V 703 – Catalina Sky Survey MPS 147529
2005 10 29.32485 01 47 51.21 +11 46 27.4 19.6 V 703 – Catalina Sky Survey MPS 147529
2005 10 29.33246 01 47 50.85 +11 46 24.7 19.4 V 703 – Catalina Sky Survey MPS 147529
2005 10 29.33999 01 47 50.60 +11 46 20.3 19.5 V 703 – Catalina Sky Survey MPS 147529
2005 10 30.20923 01 47 13.71 +11 40 36.5 20.5 V 291 – LPL/Spacewatch II MPS 147529
2005 10 30.21898 01 47 13.27 +11 40 32.7 20.7 V 291 – LPL/Spacewatch II MPS 147529
2005 10 30.22752 01 47 12.88 +11 40 29.4 20.9 V 291 – LPL/Spacewatch II MPS 147529
2005 11 25.27156 01 33 40.64 +09 19 09.0 20.8 V G96 – Mt. Lemmon Survey MPS 152113
2005 11 25.27852 01 33 40.53 +09 19 07.7 20.5 V G96 – Mt. Lemmon Survey MPS 152113
2005 11 25.28554 01 33 40.42 +09 19 05.9 20.6 V G96 – Mt. Lemmon Survey MPS 152113
2005 11 25.29258 01 33 40.32 +09 19 04.7 20.6 V G96 – Mt. Lemmon Survey MPS 152113
2005 12 02.15843 01 32 20.40 +08 56 49.2 20.9 V G96 – Mt. Lemmon Survey MPS 153715
2005 12 02.16693 01 32 20.32 +08 56 47.9 21.0 V G96 – Mt. Lemmon Survey MPS 153715
2005 12 02.17568 01 32 20.25 +08 56 46.6 20.4 V G96 – Mt. Lemmon Survey MPS 153715
2005 12 02.18441 01 32 20.18 +08 56 45.0 20.5 V G96 – Mt. Lemmon Survey MPS 153715
2008 02 10.30262 10 48 38.63 -00 35 13.9 21.6 V 691 – Steward Observatory, Kitt Peak-Spacewatch MPS 309359
2008 02 10.32038 10 48 37.98 -00 35 09.8 21.8 V 691 – Steward Observatory, Kitt Peak-Spacewatch MPS 309359
2008 02 10.33814 10 48 37.35 -00 35 06.1 21.7 V 691 – Steward Observatory, Kitt Peak-Spacewatch MPS 309359
2009 04 21.30530 14 14 02.07 -13 32 07.0 20.9 V G96 – Mt. Lemmon Survey MPS 308638
2009 04 21.31280 14 14 01.75 -13 32 04.7 21.0 V G96 – Mt. Lemmon Survey MPS 308638
2009 04 21.32014 14 14 01.39 -13 32 02.6 21.4 V G96 – Mt. Lemmon Survey MPS 308638
2009 04 21.32751 14 14 01.10 -13 31 59.8 20.9 V G96 – Mt. Lemmon Survey MPS 308638
2009 05 25.21294 13 51 54.00 -10 41 05.7 22.3 V G96 – Mt. Lemmon Survey MPS 308638
2009 05 25.22310 13 51 53.67 -10 41 02.7 21.9 V G96 – Mt. Lemmon Survey MPS 308638
2009 05 25.23355 13 51 53.42 -10 40 59.8 21.5 V G96 – Mt. Lemmon Survey MPS 308638
2009 05 25.24392 13 51 53.06 -10 40 57.1 21.5 V G96 – Mt. Lemmon Survey MPS 308638
2010 04 23.014698 20 16 07.16 -12 54 21.7   C51 – WISE MPS 341811
2010 04 23.147002 20 16 14.70 -12 53 35.0   C51 – WISE MPS 341811
2010 04 23.543914 20 16 37.08 -12 51 12.8   C51 – WISE MPS 341811
2010 04 23.610131 20 16 40.85 -12 50 49.0   C51 – WISE MPS 341811
2010 04 23.676219 20 16 44.56 -12 50 25.4   C51 – WISE MPS 341811
2010 04 23.676346 20 16 44.64 -12 50 24.5   C51 – WISE MPS 341811
2010 04 23.742435 20 16 48.26 -12 50 02.2   C51 – WISE MPS 341811
2010 04 23.808523 20 16 52.094 -12 49 36.30   C51 – WISE MPS 903753
2010 04 23.808650 20 16 52.01 -12 49 38.7   C51 – WISE MPS 341811
2010 04 23.874740 20 16 55.73 -12 49 13.6   C51 – WISE MPS 341811
2010 04 23.940955 20 16 59.46 -12 48 51.1   C51 – WISE MPS 341811
2010 04 24.007043 20 17 03.17 -12 48 27.9   C51 – WISE MPS 341811
2010 04 24.13935 20 17 10.50 -12 47 41.3   C51 – WISE MPS 341811
2010 06 13.37270 20 40 39.36 -08 36 16.7 20.9 V G96 – Mt. Lemmon Survey MPS 331920
2010 06 13.37872 20 40 39.36 -08 36 15.6 20.5 V G96 – Mt. Lemmon Survey MPS 331920
2010 06 13.38473 20 40 39.36 -08 36 14.2 20.4 V G96 – Mt. Lemmon Survey MPS 331920
2010 06 13.39078 20 40 39.28 -08 36 13.2 20.4 V G96 – Mt. Lemmon Survey MPS 331920
2010 07 04.39381 20 34 05.77 -07 57 11.4 19.9 V G96 – Mt. Lemmon Survey MPS 337339
2010 07 04.40093 20 34 05.52 -07 57 11.6 20.2 V G96 – Mt. Lemmon Survey MPS 337339
2010 07 04.40808 20 34 05.26 -07 57 11.6 20.1 V G96 – Mt. Lemmon Survey MPS 337339
2010 07 04.41532 20 34 05.01 -07 57 11.5 20.1 V G96 – Mt. Lemmon Survey MPS 337339
2011 09 24.45722 04 14 19.39 +19 22 58.0 21.2 V G96 – Mt. Lemmon Survey MPS 394114
2011 09 24.46284 04 14 19.50 +19 22 57.3 21.1 V G96 – Mt. Lemmon Survey MPS 394114
2011 09 24.46846 04 14 19.50 +19 22 56.8 21.2 V G96 – Mt. Lemmon Survey MPS 394114
2011 09 24.47418 04 14 19.60 +19 22 56.1 21.3 V G96 – Mt. Lemmon Survey MPS 394114
2011 10 19.45861 04 11 12.84 +18 12 36.9 20.5 V G96 – Mt. Lemmon Survey MPS 396128
2011 10 19.46383 04 11 12.66 +18 12 35.6 20.6 V G96 – Mt. Lemmon Survey MPS 396128
2011 10 19.46900 04 11 12.48 +18 12 34.9 20.2 V G96 – Mt. Lemmon Survey MPS 396128
2011 10 19.47424 04 11 12.40 +18 12 33.3 20.5 V G96 – Mt. Lemmon Survey MPS 396128
2011 10 21.36820 04 10 21.27 +18 05 27.4 20.4 V 691 – Steward Observatory, Kitt Peak-Spacewatch MPS 396128
2011 10 21.38595 04 10 20.80 +18 05 23.9 20.9 V 691 – Steward Observatory, Kitt Peak-Spacewatch MPS 396128
2011 10 21.40372 04 10 20.25 +18 05 20.4 21.0 V 691 – Steward Observatory, Kitt Peak-Spacewatch MPS 396128
2011 10 26.41744 04 07 42.007 +17 45 32.42 23.6 w F51 – Pan-STARRS 1, Haleakala MPS 398002
2011 10 26.43195 04 07 41.482 +17 45 28.91 23.7 w F51 – Pan-STARRS 1, Haleakala MPS 398002
2011 10 26.46106 04 07 40.424 +17 45 21.71 23.4 w F51 – Pan-STARRS 1, Haleakala MPS 398002
2011 11 27.19404 03 43 27.94 +15 25 12.9 20.1 V G96 – Mt. Lemmon Survey MPS 403712
2011 11 27.20263 03 43 27.51 +15 25 10.5 20.3 V G96 – Mt. Lemmon Survey MPS 403712
2011 11 27.21135 03 43 27.08 +15 25 08.4 20.3 V G96 – Mt. Lemmon Survey MPS 403712
2011 11 27.22014 03 43 26.65 +15 25 05.9 20.0 V G96 – Mt. Lemmon Survey MPS 403712
2013 01 10.51924 08 27 07.907 +09 42 25.36 21.7 w F51 – Pan-STARRS 1, Haleakala MPS 450773
2013 01 10.53308 08 27 07.282 +09 42 26.99 21.4 w F51 – Pan-STARRS 1, Haleakala MPS 450773
2013 01 10.54695 08 27 06.647 +09 42 28.49 21.4 w F51 – Pan-STARRS 1, Haleakala MPS 450773
2013 01 10.56083 08 27 06.015 +09 42 29.86 21.4 w F51 – Pan-STARRS 1, Haleakala MPS 450773
